Volver al catálogo

FENGYUN 1C DEB

ActivoSSO
NORAD 30370·DEBRIS·🇨🇳 China

Lanzado May 10, 1999 desde Taiyuan Satellite Launch Center

Loading…

Próximos Pases (próximas 24 horas)

TLE

ActualizadoSource: Space-Track

Época: Sep 14, 2026, 03:19 UTC

1 30370U 99025ACH 26257.13829288  .00001268  00000-0  58579-3 0  9995
2 30370  99.0349 324.0405 0099009 251.1481 138.1138 14.20271783 10029

Sigue FENGYUN 1C DEB en tiempo real con AllMySat

Download on the App Store